Regional Weather Roundup
Issued by NWS Charleston, SC

Current Version | Previous Version | Graphics & Text | Print | Product List | Glossary On
Versions: 1 2 3 4 5 6 7 8 9 10 11 12 13 14 15 16 17 18 19 20 21 22 23 24 25 26 27 28 29 30 31 32 33 34 35 36 37 38 39 40 41 42 43 44 45 46 47 48 49 50
000
ASUS42 KCHS 241712
RWRCHS

REGIONAL WEATHER ROUNDUP
NATIONAL WEATHER SERVICE CHARLESTON SC
100 PM EDT SAT JUN 24 2017

NOTE: "FAIR" INDICATES FEW OR NO CLOUDS BELOW 12,000 FEET WITH NO
SIGNIFICANT WEATHER AND/OR OBSTRUCTIONS TO VISIBILITY.

NOT ALL STATIONS ARE QUALITY CONTROLLED. USE DATA WITH CAUTION...
ESPECIALLY DEWPOINT OBSERVATIONS.

SCZ027-030-031-034>040-042>050-241800-
...SOUTHEAST SOUTH CAROLINA...

CITY           SKY/WX    TMP DP  RH WIND       PRES   REMARKS
N CHARLESTON   MOSUNNY   91  69  48 SW13      30.01F HX  96
WATERFRONT PRK   N/A     87  72  60 SW9       30.00F HX  93
JOHNS ISLAND   CLOUDY    88  77  70 S12       30.02S HX 100
PINOPOLIS        N/A     88  75  66 SW12      29.94S HX  97
MONCKS CORNER  FAIR      88  70  55 SW7       30.00F HX  92
SUMMERVILLE    FAIR      90  70  51 SW10      30.02S HX  95
BEAUFORT MCAS  SUNNY     90  72  55 SW12G17   30.03S HX  97
BEAUFORT ARPT  FAIR      90  72  55 SW9       30.02F HX  96
HILTON HEAD IS SUNNY     88  77  70 S12       30.03F HX 100
WALTERBORO     MOSUNNY   90  72  55 SW8G17    30.02S HX  96
ALLENDALE      PTSUNNY   88  73  62 VRB3      30.01S HX  96

...SOUTHERN MIDLANDS AND PEE DEE...

CITY           SKY/WX    TMP DP  RH WIND       PRES   REMARKS
GEORGETOWN     FAIR      90  72  55 W14       30.02S HX  96
KINGSTREE      FAIR      88  73  62 SW9G17    29.99S HX  96
ORANGEBURG     LGT RAIN  89  73  59 SW14      30.00S HX  97
BARNWELL       CLOUDY    91  75  59 SW13      30.00F HX 102
AIKEN          LGT RAIN  81  73  78 SW6       30.04S
MANNING        FAIR      88  77  70 SW18G24   29.99F HX 100
COLUMBIA       PTSUNNY   89  72  56 W13       29.98S HX  96
SUMTER         MOSUNNY   88  73  60 SW13      29.96S HX  95
FLORENCE       MOSUNNY   90  74  59 W13       29.97S HX  99
MYRTLE BEACH   MOSUNNY   90  72  55 SW12G22   30.00S HX  96
N MYRTLE BEACH MOSUNNY   89  73  59 SW16      29.99S HX  97

$$

GAZ063-065-086>088-099>101-113>116-118-119-134>141-150-241800-
...SOUTHEAST GEORGIA...

CITY           SKY/WX    TMP DP  RH WIND       PRES   REMARKS
SAVANNAH ARPT  MOSUNNY   91  69  48 W9G18     30.03F HX  96
HUNTER AAF     MOSUNNY   92  70  48 W15G21    30.00F HX  98
FORT STEWART   PTSUNNY   90  70  51 SW14G22   30.01F HX  95
STATESBORO     MOSUNNY   89  73  57 W9G17     30.04S HX  96
SYLVANIA       MOSUNNY   89  76  65 W3        30.04S HX  99
CLAXTON        FAIR      88  70  55 SW9       30.04S HX  93

...CSRA...CENTRAL AND FAR SOUTHEAST GEORGIA...

CITY           SKY/WX    TMP DP  RH WIND       PRES   REMARKS
THOMSON        CLOUDY    85  74  69 W9G17     30.05F HX  93
AUGUSTA-BUSH   PTSUNNY   90  75  61 SW13      29.99S HX 100
AUGUSTA-DANIEL LGT RAIN  83  75  77 S8        30.01S HX  90
SWAINSBORO     PTSUNNY   88  73  62 W10       30.05S HX  96
VIDALIA        MOSUNNY   90  73  58 W8        30.05S HX  98
EASTMAN        PTSUNNY   89  61  39 W7        30.07S
HAZLEHURST       N/A     89  73  58 SW6       30.05R HX  96
ALMA           MOSUNNY   90  71  53 SW9       30.06R HX  96
WAYCROSS       PTSUNNY   92  77  61 W8G18     30.06R HX 104
JESUP          FAIR      90  68  48 W8        30.05S HX  93
BAXLEY         FAIR      90  75  62 SW10G16   30.05R HX 100
BRUNSWICK      MOSUNNY   91  75  59 SW15      30.05F HX 102
SAINT SIMONS   SUNNY     92  73  53 SW12      30.05S HX 100

$$

SCZ027-028-034-036>038-045-046-048>050-GAZ119-141-241800-
...LAKE AND SUPPLEMENTAL COASTAL OBSERVATIONS...

STATION/POSITION TIME  TEMP    WIND        PRES    WAVE   SWELL
                       AIR SEA DIR/SP/G            HT/PER HT/PER/DIR
                 (UTC) (F)     (DEG/KT/KT) (MB)    (FT/S) (FT/S/D)
WINYAH BAY       NOT AVBL
LAKE MURRAY      1620   83     240/  9/ 14 1014.2
ACE BASIN NERRS  1545   87     230/  3     1017.0
FORT PULASKI     1648   89 84  210/  7/ 14 1017.1F
SAPELO ISLAND    1600   88     230/  9     1017.0

$$

ANZ835-935-AMZ111-154-330-350-352-354-370-450-454-472-241800-
...C-MAN AND BUOY OBSERVATIONS...

STATION/POSITION TIME  TEMP    WIND        PRES    WAVE   SWELL
                       AIR SEA DIR/SP/G            HT/PER HT/PER/DIR
                 (UTC) (F)     (DEG/KT/KT) (MB)    (FT/S) (FT/S/D)
BUOY 41004       1650   81 81  220/ 14/ 17 1017.3R   5/ 6   2/140/ 9
BUOY 41008       1550   81 83  200/ 10/ 10 1017.4    3/ 5   3/140/ 5
FOLLY BEACH CMAN 1700   84     200/ 13/ 16 1017.3F
CAPERS NEARSHORE 1608   87 83  230/ 16/ 21 1016.5R
FRIPP NEARSHORE  1608   82 83  210/ 10/ 14 1016.9R


STATION/POSITION TIME  TEMP    WIND        PRES    WAVE   SWELL
                       AIR SEA DIR/SP/G            HT/PER HT/PER/DIR
                 (UTC) (F)     (DEG/KT/KT) (MB)    (FT/S) (FT/S/D)
5E ST. MARYS GA  1630      81                N/A     2/ 8
FRYING PAN BUOY  1650   81 80  230/ 17/ 21 1016.5S   6/ 6   2/150/ 9
BUOY 41025       1650   80 80  240/ 21/ 23 1014.5R   8/ 8
CAPE LOOKOUT NC  1700   83     220/ 14/ 21 1014.5F
BUOY 41002       1550   81 80  210/ 16/ 17 1019.7    4/ 5   2/100/ 9
BUOY 41010       1650   83 83  190/ 10/ 12 1020.0S   4/ 8   3/110/ 8
ST AUGUSTINE FL  1700   79 78  130/  9/ 11 1018.9F


$$



USA.gov is the U.S. government's official web portal to all federal, state and local government web resources and services.